Hill City, KS

5:41 AM CDT on June 16, 2019 (GMT -0500)
Hill City Municipal

Weather History for KHLC - May, 2019

Change the Weather History Date:

Saturday, May 18, 2019

  Actual Average Record
Temperature  
Mean Temperature 63 °F 63 °F  
Max Temperature 79 °F 76 °F 101 °F (1996)
Min Temperature 47 °F 51 °F 31 °F (2002)
Degree Days  
Heating Degree Days 2    
Growing Degree Days 13 (Base 50)    
Moisture  
Dew Point 49 °F    
Average Humidity 70    
Maximum Humidity 100    
Minimum Humidity 32    
Precipitation  
Precipitation 1.45 in 0.15 in 1.24 in (2018)
Month to date precipitation 3.68 2.19  
Year to date precipitation 6.35 6.91  
Sea Level Pressure  
Sea Level Pressure 29.61 in    
Wind  
Wind Speed 9 mph ()    
Max Wind Speed 28 mph    
Max Gust Speed 43 mph    
Visibility 8.1 miles    
Events Fog , Rain    
T = Trace of Precipitation, MM = Missing Value Source: Averaged Metar Reports

Daily Weather History Graph

Daily Weather History Graph

Search for Another Location

Airport or City:

Astronomy

May. 18, 2019 Rise Set
Actual Time 6:23 AM CDT 8:48 PM CDT
Civil Twilight 5:52 AM CDT 9:19 PM CDT
Nautical Twilight 5:14 AM CDT 9:57 PM CDT
Astronomical Twilight 4:33 AM CDT 10:39 PM CDT
Moon 8:46 PM CDT (5/18) 6:30 AM CDT (5/18)
Length of Visible Light 15h 26m
Length of Day
14h 25m
Full, 100% of the Moon is Illuminated
May 18
Full
May 18
Full
May 26
Last Quarter
Jun 3
New
Jun 10
First Quarter

Hourly Weather History & Observations

Time (CDT) Temp. Dew Point Humidity Pressure Visibility Wind Dir Wind Speed Gust Speed Precip Events Conditions
1:53 AM 57.0 °F 48.9 °F 74% 29.54 in 10.0 mi WNW 15.0 mph - N/A   Clear
2:53 AM 55.0 °F 46.9 °F 74% 29.56 in 10.0 mi NW 8.1 mph 20.7 mph N/A   Clear
3:53 AM 53.1 °F 46.9 °F 80% 29.55 in 10.0 mi WNW 6.9 mph - N/A   Clear
4:53 AM 48.9 °F 45.0 °F 86% 29.59 in 10.0 mi Calm Calm - N/A   Clear
5:53 AM 48.0 °F 45.0 °F 89% 29.59 in 10.0 mi West 4.6 mph - N/A   Clear
6:53 AM 48.0 °F 45.0 °F 89% 29.60 in 10.0 mi Calm Calm - N/A   Clear
7:53 AM 53.1 °F 46.9 °F 80% 29.61 in 10.0 mi West 4.6 mph - N/A   Clear
8:53 AM 59.0 °F 46.9 °F 64% 29.61 in 10.0 mi NNW 9.2 mph - N/A   Clear
9:53 AM 63.0 °F 48.0 °F 58% 29.58 in 10.0 mi NW 13.8 mph - N/A   Clear
11:53 AM 72.0 °F 46.9 °F 41% 29.59 in 10.0 mi North 9.2 mph - N/A   Clear
12:53 PM 73.9 °F 46.9 °F 38% 29.55 in 10.0 mi NNE 11.5 mph - N/A   Clear
1:53 PM 73.9 °F 46.0 °F 37% 29.55 in 10.0 mi NE 9.2 mph - N/A   Clear
2:53 PM 75.9 °F 46.0 °F 35% 29.54 in 10.0 mi NNE 11.5 mph 17.3 mph N/A   Clear
3:53 PM 78.1 °F 46.0 °F 32% 29.53 in 10.0 mi NNE 12.7 mph 21.9 mph N/A   Clear
4:53 PM 77.0 °F 48.0 °F 36% 29.55 in 10.0 mi ENE 11.5 mph 19.6 mph N/A   Partly Cloudy
5:53 PM 73.0 °F 54.0 °F 51% 29.54 in 10.0 mi East 15.0 mph - N/A   Scattered Clouds
6:53 PM 70.0 °F 55.0 °F 59% 29.54 in 10.0 mi East 12.7 mph - N/A   Clear
7:53 PM 66.9 °F 53.1 °F 61% 29.57 in 10.0 mi ENE 9.2 mph - N/A   Mostly Cloudy
8:53 PM 64.0 °F 54.0 °F 70% 29.60 in 10.0 mi East 10.4 mph - N/A   Mostly Cloudy
9:16 PM 57.9 °F 52.0 °F 81% 29.68 in 2.5 mi North 27.6 mph 39.1 mph 0.12 in Rain Heavy Rain
9:18 PM 54.0 °F 51.1 °F 90% 29.69 in 1.0 mi North 24.2 mph 42.6 mph 0.27 in Rain Heavy Rain
9:24 PM 50.0 °F 48.9 °F 96% 29.69 in 0.5 mi North 20.7 mph 42.6 mph 0.68 in Fog , Rain Heavy Rain
9:35 PM 51.1 °F 50.0 °F 96% 29.70 in 1.0 mi North 11.5 mph 27.6 mph 1.11 in Rain Heavy Rain
9:39 PM 51.1 °F 51.1 °F 100% 29.71 in 1.8 mi NNE 10.4 mph - 1.18 in Rain Heavy Rain
9:53 PM 53.1 °F 52.0 °F 96% 29.70 in 4.0 mi North 13.8 mph 20.7 mph 1.25 in Rain Rain
10:53 PM 55.0 °F 53.1 °F 93% 29.74 in 8.0 mi Calm Calm - 0.15 in Rain Light Rain
11:53 PM 53.1 °F 52.0 °F 96% 29.72 in 10.0 mi North 3.5 mph - 0.05 in Rain Light Rain